Location: Newark
(35.2161°N, 26.1013°E)
Time: 01:55:17
(UTC+00:00)

BEESAT 2 - Pass Details

Date: 29 January 2020
Orbit: 493 x 534 km, 64.9° (Epoch: 21 February)

Event Time Altitude Azimuth Distance (km) Brightness Sun altitude
Exits shadow 03:15:46 28° 168° (SSE) 1,005 ? -24.9°
Drops below altitude 10° 03:17:45 10° 161° (SSE) 1,761 ? -24.5°
Sets 03:19:55 0° 158° (SSE) 2,640 ? -24.1°
